Wetbulb
45.97 39.27 34.30 35.54 39.94 35.32 34.99 33.96 32.15 33.35 39.04 38.20 37.03 38.09 41.30 42.48 39.95 40.67 41.03 40.92 42.85 44.61 48.05 48.00 48.73 49.36 50.07 56.09 57.81 59.29 59.21 59.69 58.51 57.19 57.99 59.13 58.77 59.72 59.71 60.19 60.34 60.18 60.47 60.64
41.79 36.46 38.36 39.03 40.21 38.57 34.34 33.11 31.15 35.48 38.31 37.88 35.94 35.81 38.82 39.74 40.30 40.79 41.51 40.73 42.06 43.32 45.36 47.79 47.43 47.84 48.59 52.13 56.50 57.98 59.01 58.87 58.16 58.75 58.81 59.11 58.45 59.54 60.16 60.09 59.52 59.99 60.08 60.18
35.66 36.03 41.13 39.60 38.99 38.15 37.75 34.00 31.37 31.45 36.20 35.92 34.74 33.48 34.40 37.22 38.90 40.19 41.26 42.64 42.75 43.18 44.43 45.93 46.62 47.57 46.64 47.94 51.84 56.39 58.41 58.28 57.98 58.57 58.01 55.48 54.83 54.53 56.20 58.50 58.99 58.46 59.29 59.67
38.82 40.87 37.92 36.68 36.12 38.99 33.57 39.50 35.80 35.05 32.68 26.90 33.14 25.14 29.59 31.25 35.31 39.03 40.46 41.08 41.45 43.38 44.58 45.24 46.37 46.81 46.99 46.68 47.89 52.08 56.41 58.02 57.53 57.13 57.24 55.97 56.12 55.25 56.56 57.53 57.86 58.45 57.69 58.70
35.03 36.73 35.95 34.77 36.24 40.17 34.10 39.92 38.86 36.27 33.51 31.07 28.66 26.91 27.13 32.42 32.11 35.60 39.39 40.40 41.38 43.26 43.88 44.60 45.42 46.34 46.66 46.47 45.88 48.16 52.49 56.19 57.55 56.20 56.94 56.37 55.59 56.95 57.31 55.74 55.54 56.02 57.12 57.39
37.11 39.63 39.34 37.73 39.19 40.68 39.74 36.70 36.48 35.43 33.51 27.43 29.73 28.02 29.08 31.09 33.93 36.51 39.56 41.27 41.77 42.25 43.00 43.38 44.43 44.66 44.18 44.73 45.43 46.04 48.67 52.51 56.28 55.71 55.38 56.06 55.38 55.44 55.63 55.14 54.52 55.59 55.63 56.26
35.46 35.23 37.13 40.31 35.95 38.77 37.15 33.17 20.45 25.05 25.72 22.35 28.71 27.28 30.89 31.91 34.70 38.35 39.56 40.15 41.21 40.16 40.78 41.45 41.73 42.28 44.51 44.44 44.47 47.07 48.91 51.34 54.19 56.20 54.80 55.22 55.91 55.81 55.42 55.51 55.36 55.31 54.91 55.24
30.84 28.14 35.49 38.40 36.62 35.22 36.99 34.86 23.77 15.55 19.32 23.64 29.11 25.79 31.00 36.80 40.04 42.43 43.63 44.42 40.83 40.38 40.65 40.73 41.63 41.63 40.81 41.52 41.69 42.68 44.42 45.09 48.83 53.57 55.66 55.36 55.51 56.22 56.43 56.50 56.85 56.75 56.03 56.56
30.87 30.87 36.13 37.55 38.75 39.67 36.03 32.80 34.34 25.28 20.98 19.39 25.24 28.25 35.16 37.31 36.55 38.82 38.94 38.18 38.95 38.91 39.25 38.60 39.02 39.54 39.91 40.51 41.05 41.44 42.24 43.29 43.99 44.76 47.38 52.65 55.93 55.51 56.16 56.49 56.89 57.40 57.73 57.79
32.05 29.71 33.71 37.52 38.87 38.96 36.97 38.23 30.42 29.58 19.51 16.43 23.17 24.35 27.76 31.55 34.83 35.81 37.00 36.92 36.28 36.45 37.14 37.90 38.40 38.85 39.32 39.61 39.97 40.55 41.00 41.38 42.05 42.83 43.51 44.93 46.76 50.34 54.91 56.35 56.44 57.12 57.88 57.95
36.56 32.23 29.19 35.13 34.60 34.29 34.70 33.54 33.36 32.46 30.06 22.40 17.97 23.99 31.43 34.76 36.08 36.57 36.53 36.16 36.38 36.62 36.53 37.06 37.50 37.91 38.22 38.26 38.20 38.56 39.10 39.63 40.25 40.93 41.76 42.28 43.19 44.59 46.73 49.85 53.25 56.15 57.97 58.16
38.28 34.65 24.94 29.96 36.78 39.44 38.27 34.81 34.30 27.45 23.13 28.56 24.02 26.12 33.88 34.88 35.79 37.50 35.78 36.29 35.86 37.07 37.13 37.23 37.68 37.67 37.80 37.68 37.57 37.40 38.04 38.39 38.89 39.08 39.54 40.49 41.47 42.25 42.83 43.93 45.67 47.90 50.36 54.90
37.70 31.87 26.65 27.92 31.30 34.32 34.42 35.64 35.55 34.60 30.07 27.55 25.20 26.99 35.70 35.76 34.90 35.73 35.89 36.28 37.78 37.75 37.45 37.90 38.11 37.89 37.92 38.90 38.52 37.45 37.96 38.22 38.86 38.80 38.47 38.94 39.27 39.73 40.23 41.42 43.23 45.07 46.57 48.27
39.65 32.54 29.48 25.03 25.63 30.65 30.97 33.18 34.52 33.69 29.16 28.49 28.43 30.10 32.85 32.73 34.20 34.97 35.50 37.10 38.31 38.39 39.04 38.72 37.93 38.25 38.56 39.18 38.65 38.65 37.38 38.42 38.54 38.46 37.89 37.55 37.78 38.11 38.45 39.35 40.28 41.55 43.34 45.01
36.72 29.32 30.97 31.70 30.62 31.53 32.75 32.26 33.24 32.39 33.35 29.19 31.51 30.22 34.75 34.79 35.26 36.48 37.07 36.54 37.00 37.14 37.20 37.11 36.89 37.06 35.96 35.72 35.05 35.14 35.49 35.57 35.78 35.92 36.27 36.79 36.63 36.91 37.01 37.24 37.79 38.49 39.54 41.25
36.74 29.71 30.64 27.41 31.80 31.15 27.64 32.35 33.45 34.36 34.47 33.60 33.43 31.62 38.50 37.41 37.08 36.35 36.88 37.31 37.04 36.57 35.69 33.80 33.88 33.66 33.45 33.64 32.73 32.70 32.88 33.78 34.83 33.73 34.36 34.63 33.98 34.02 34.75 35.26 36.00 37.03 37.77 38.90
33.06 31.48 29.04 25.01 29.64 29.78 25.73 30.07 31.43 33.83 35.43 34.89 30.48 35.58 38.22 33.00 36.82 37.81 37.19 37.33 36.89 33.47 31.64 30.89 30.00 30.38 30.92 30.75 30.19 30.16 31.29 32.42 31.77 31.96 31.96 31.47 31.15 31.49 33.01 34.72 35.98 36.25 36.89 37.59
32.62 31.17 30.25 23.46 25.80 19.64 29.99 33.97 34.34 33.32 34.37 36.80 36.77 37.20 38.77 36.21 33.12 32.03 35.95 35.71 31.13 29.69 29.11 26.71 27.04 27.94 27.53 26.97 27.09 27.84 28.31 27.49 28.54 27.09 26.82 28.40 29.77 30.68 31.98 32.94 34.20 35.69 36.59 36.58
33.76 31.05 28.13 23.89 21.83 22.67 26.99 29.28 30.41 30.85 31.31 35.85 35.79 38.31 33.73 31.72 32.27 27.64 27.68 27.32 26.02 25.72 24.86 24.16 24.97 25.05 23.88 23.67 24.56 23.76 24.37 24.59 23.51 22.85 23.54 26.70 27.42 28.97 30.63 30.84 31.92 33.81 34.85 35.34
33.47 33.60 27.87 26.72 21.32 18.60 27.70 26.06 22.61 32.38 27.53 22.44 22.59 29.81 32.18 33.35 31.76 27.22 24.89 23.94 22.38 21.94 22.31 21.15 21.20 22.25 21.65 21.95 20.69 21.42 20.85 20.98 19.03 20.49 21.74 24.93 24.34 27.05 29.14 30.47 31.13 32.86 33.69 34.16
26.29 27.22 24.80 23.38 22.61 24.41 18.59 18.67 22.81 26.90 23.13 18.19 18.67 21.32 29.28 31.28 24.65 23.96 22.02 20.39 20.15 20.11 20.32 18.40 18.38 18.88 19.17 19.38 18.05 18.16 18.64 16.61 17.93 19.44 21.20 21.38 22.42 23.65 28.35 29.89 31.03 31.42 32.26 33.06
26.12 24.33 24.32 24.51 22.09 18.88 15.73 20.75 22.94 19.82 17.32 17.02 15.74 18.30 20.25 20.17 19.17 18.94 18.79 17.92 17.14 15.84 16.63 16.34 15.76 16.76 17.56 16.63 15.58 15.27 15.56 15.32 16.36 17.88 17.40 18.18 19.87 22.23 27.40 28.55 28.88 30.02 31.07 32.00
23.02 16.91 19.88 12.93 15.32 13.25 15.32 14.68 16.78 17.85 14.08 13.51 14.12 15.49 17.11 16.15 15.02 15.62 14.72 15.07 14.62 14.05 14.26 13.64 12.73 13.65 14.59 13.35 13.17 11.58 11.77 13.33 13.93 13.63 13.39 15.85 18.22 21.60 24.14 25.55 27.13 27.36 29.48 30.43
16.64 11.55 16.69 14.93 11.03 10.18 12.29 13.96 13.91 13.75 12.43 13.55 13.90 13.31 14.05 13.03 13.51 13.81 13.88 12.58 11.52 11.40 10.44 10.42 10.30 10.01 9.54 9.88 9.88 9.15 9.91 10.75 9.70 9.61 12.60 14.75 16.28 16.43 18.93 22.13 25.23 26.88 27.49 28.14
4.85 8.28 9.10 9.98 11.15 11.21 9.45 10.15 11.61 11.54 11.65 12.13 12.47 11.46 10.07 11.60 9.95 9.70 9.62 9.04 8.64 8.16 7.90 8.15 7.15 6.78 5.94 6.47 6.13 6.64 7.75 8.26 7.77 9.09 10.46 12.36 12.92 12.88 14.86 17.30 22.20 25.18 26.42 27.70
4.11 0.41 3.67 4.79 6.27 8.69 6.70 8.56 9.96 8.18 7.66 8.75 9.08 8.32 8.80 7.78 6.62 6.54 6.36 6.43 5.71 4.92 5.52 4.79 4.01 3.17 3.16 3.08 3.24 4.15 5.41 5.81 4.98 5.39 7.20 8.24 9.14 9.09 11.89 15.80 15.74 22.32 25.93 27.49
MSLP
1019.07 1019.54 1018.07 1018.36 1019.57 1019.77 1019.90 1020.04 1019.88 1019.40 1018.81 1018.83 1018.44 1018.22 1016.95 1016.83 1017.32 1017.53 1017.59 1017.63 1017.23 1016.62 1015.45 1015.16 1014.95 1014.91 1014.96 1015.13 1015.18 1015.00 1015.43 1015.44 1016.14 1016.61 1016.93 1017.13 1017.12 1017.34 1017.50 1017.52 1017.70 1018.00 1018.35 1018.59
1019.28 1017.44 1018.08 1018.90 1019.53 1019.87 1020.21 1020.12 1019.90 1019.46 1018.95 1019.02 1018.66 1017.84 1017.26 1016.52 1016.35 1016.48 1016.94 1017.19 1016.62 1016.03 1015.27 1014.64 1014.46 1014.44 1014.48 1014.36 1014.52 1014.67 1014.66 1014.72 1015.03 1015.38 1015.48 1015.87 1016.03 1016.14 1016.19 1016.44 1016.50 1016.68 1017.16 1017.56
1017.66 1016.63 1017.51 1018.32 1019.14 1019.58 1019.64 1019.78 1019.95 1019.82 1019.37 1019.28 1019.20 1017.08 1016.44 1015.31 1015.32 1015.59 1015.74 1015.62 1015.44 1015.22 1015.00 1014.47 1014.24 1014.00 1013.99 1014.19 1014.04 1014.05 1013.97 1014.00 1014.20 1014.33 1014.88 1015.22 1015.57 1015.62 1015.69 1015.55 1015.67 1015.83 1016.22 1016.52
1017.46 1016.98 1017.14 1017.82 1018.24 1018.80 1019.41 1019.32 1020.01 1020.26 1020.38 1020.43 1019.76 1017.35 1015.58 1015.16 1015.07 1015.10 1015.26 1015.20 1014.88 1014.84 1014.33 1014.28 1014.01 1013.75 1013.58 1013.50 1013.53 1013.38 1013.28 1013.31 1013.40 1013.67 1014.12 1014.33 1014.37 1014.67 1014.26 1014.27 1014.67 1014.96 1015.25 1015.53
1015.08 1016.03 1016.84 1017.54 1016.79 1018.20 1018.11 1018.61 1019.65 1020.35 1020.71 1020.96 1020.29 1019.76 1014.39 1015.05 1014.95 1014.92 1014.62 1014.58 1014.31 1013.91 1013.90 1013.88 1013.81 1013.49 1013.22 1013.32 1013.53 1013.31 1013.08 1012.93 1012.64 1012.70 1012.87 1013.19 1013.48 1013.44 1013.32 1013.77 1014.02 1014.23 1014.42 1014.62
1014.40 1015.33 1015.81 1015.41 1016.64 1017.34 1018.17 1019.00 1019.93 1020.56 1021.21 1021.17 1018.28 1019.52 1013.56 1014.69 1014.12 1014.06 1013.92 1013.89 1013.69 1013.80 1013.69 1013.71 1013.55 1013.63 1013.62 1013.31 1013.13 1012.88 1012.67 1012.31 1012.25 1012.44 1012.59 1012.77 1012.90 1012.98 1013.20 1013.44 1013.61 1013.78 1014.00 1014.25
1014.98 1015.43 1015.42 1015.35 1016.26 1017.01 1017.78 1018.68 1020.25 1020.95 1020.57 1019.01 1018.84 1019.31 1014.93 1013.53 1013.48 1013.37 1013.72 1013.68 1013.41 1013.52 1013.69 1013.72 1013.95 1013.97 1013.72 1013.58 1013.39 1013.06 1012.72 1012.45 1012.20 1012.19 1012.28 1012.35 1012.43 1012.63 1012.87 1013.03 1013.16 1013.35 1013.51 1013.63
1014.09 1014.71 1014.51 1014.33 1014.51 1015.36 1016.57 1017.32 1017.79 1019.05 1019.71 1019.07 1018.79 1017.28 1013.49 1012.79 1012.35 1013.04 1012.18 1012.80 1013.19 1013.54 1013.69 1013.91 1014.00 1014.28 1014.16 1014.06 1013.81 1013.35 1013.07 1012.86 1012.60 1012.37 1012.27 1012.25 1012.28 1012.38 1012.37 1012.46 1012.48 1012.51 1012.60 1012.53
1013.38 1012.91 1012.81 1013.74 1014.23 1014.57 1015.51 1015.88 1016.73 1018.30 1019.51 1019.16 1017.73 1015.80 1013.76 1012.57 1012.83 1012.83 1012.67 1013.08 1013.48 1013.67 1013.93 1014.29 1014.49 1014.60 1014.67 1014.51 1014.33 1014.02 1013.70 1013.55 1013.30 1013.09 1012.76 1012.46 1012.25 1012.28 1012.22 1012.08 1012.01 1011.91 1011.76 1011.72
1012.20 1012.49 1012.73 1013.50 1013.83 1013.78 1014.03 1015.11 1016.52 1017.09 1017.97 1018.21 1016.83 1015.79 1013.54 1012.58 1012.43 1012.67 1013.01 1013.51 1013.89 1014.32 1014.48 1014.76 1014.99 1015.02 1015.12 1014.98 1014.78 1014.43 1014.13 1014.08 1013.99 1013.67 1013.39 1013.06 1012.67 1012.31 1012.04 1011.84 1011.64 1011.35 1011.06 1010.92
1012.42 1013.06 1013.58 1012.92 1012.16 1012.27 1013.83 1014.28 1015.00 1015.58 1016.24 1016.13 1015.98 1014.20 1012.54 1012.01 1012.25 1012.58 1013.14 1013.54 1013.84 1014.38 1014.74 1014.94 1015.16 1015.38 1015.53 1015.55 1015.37 1015.16 1014.88 1014.54 1014.12 1014.07 1013.87 1013.58 1013.26 1012.75 1012.26 1011.90 1011.45 1011.13 1010.72 1010.35
1012.08 1012.51 1012.61 1011.87 1011.53 1011.88 1012.05 1012.34 1013.43 1013.92 1014.68 1014.72 1014.04 1012.50 1011.36 1011.43 1011.92 1012.45 1013.15 1013.66 1014.07 1014.41 1014.77 1015.04 1015.20 1015.49 1015.71 1015.65 1015.41 1015.43 1015.38 1015.39 1015.24 1014.40 1014.16 1013.97 1013.70 1013.43 1012.89 1012.44 1011.71 1011.27 1010.78 1010.23
1011.66 1011.91 1011.76 1012.12 1012.51 1011.93 1011.65 1011.84 1012.31 1012.80 1013.30 1013.35 1013.40 1011.94 1011.40 1011.72 1012.11 1012.45 1013.15 1013.84 1014.12 1014.43 1014.73 1015.04 1015.29 1015.65 1015.93 1016.12 1015.97 1015.48 1015.33 1015.58 1015.40 1015.18 1014.23 1014.17 1013.99 1013.81 1013.57 1013.06 1012.47 1011.60 1010.84 1010.33
1010.52 1010.49 1009.88 1009.63 1010.16 1010.43 1011.45 1011.51 1011.59 1011.91 1012.32 1012.10 1012.19 1011.70 1011.07 1011.72 1012.09 1012.44 1013.08 1013.74 1014.18 1014.72 1014.90 1015.08 1015.56 1016.00 1016.31 1016.62 1016.85 1016.74 1016.30 1015.90 1015.76 1015.49 1015.46 1014.59 1014.53 1014.18 1013.92 1013.53 1012.91 1012.05 1011.37 1010.43
1009.70 1009.46 1009.81 1009.72 1010.33 1010.53 1010.34 1010.65 1010.59 1010.93 1010.76 1011.14 1010.51 1011.07 1010.27 1010.86 1011.51 1012.16 1012.42 1013.46 1014.15 1014.72 1015.33 1015.94 1016.28 1016.66 1016.89 1016.70 1016.83 1016.90 1016.28 1016.60 1016.38 1016.41 1015.67 1015.40 1015.10 1014.52 1014.13 1013.74 1012.96 1012.24 1011.66 1010.78
1009.25 1008.94 1010.03 1010.02 1010.37 1010.43 1010.20 1010.56 1010.34 1010.16 1009.99 1010.05 1010.16 1010.12 1009.40 1009.86 1011.55 1012.24 1012.39 1013.17 1014.20 1015.16 1016.03 1016.56 1016.39 1016.51 1017.03 1017.08 1017.18 1017.52 1017.03 1017.00 1016.80 1016.44 1016.26 1015.90 1015.52 1014.64 1014.32 1013.91 1012.97 1012.43 1011.57 1010.98
1008.90 1009.20 1009.86 1009.07 1009.05 1009.72 1009.72 1009.39 1008.80 1009.14 1009.44 1009.80 1009.59 1008.89 1008.75 1010.33 1011.26 1011.93 1012.64 1013.48 1014.60 1015.75 1016.57 1016.99 1017.42 1017.85 1018.31 1018.48 1018.68 1018.56 1018.02 1017.88 1017.62 1017.23 1016.84 1016.09 1015.53 1014.68 1014.52 1013.81 1013.07 1012.40 1011.70 1010.98
1008.46 1009.19 1009.80 1008.82 1009.65 1008.00 1008.10 1008.42 1009.19 1009.03 1009.18 1009.78 1009.32 1009.13 1009.22 1010.29 1011.91 1012.84 1013.18 1014.10 1015.46 1016.62 1017.49 1017.98 1018.33 1018.66 1018.97 1019.29 1019.23 1018.84 1018.40 1018.21 1017.61 1017.40 1016.85 1016.38 1016.02 1015.31 1014.40 1013.87 1013.10 1012.36 1011.70 1011.04
1008.23 1009.14 1009.06 1009.18 1008.82 1009.12 1009.36 1008.94 1008.84 1008.99 1008.73 1009.70 1010.01 1009.32 1010.28 1011.45 1012.74 1014.94 1015.55 1015.85 1017.10 1018.05 1018.69 1019.10 1019.49 1019.61 1019.87 1019.98 1019.97 1019.90 1019.47 1018.77 1018.39 1018.08 1017.61 1017.00 1016.43 1015.65 1014.70 1013.80 1012.97 1012.29 1011.55 1010.72
1008.77 1009.09 1009.54 1009.03 1009.63 1009.99 1008.90 1010.02 1010.54 1010.08 1011.11 1011.84 1012.19 1011.31 1011.10 1012.32 1014.08 1015.81 1017.06 1017.58 1018.48 1019.30 1020.02 1020.35 1020.50 1020.55 1020.77 1020.85 1020.71 1020.08 1019.55 1019.22 1019.10 1018.73 1018.11 1017.25 1016.56 1015.71 1014.71 1013.94 1013.14 1012.37 1011.61 1010.70
1009.65 1009.78 1009.95 1010.37 1011.25 1011.98 1011.98 1012.40 1012.11 1012.78 1013.91 1014.45 1014.53 1014.40 1013.48 1013.87 1015.52 1016.47 1018.14 1018.99 1019.65 1020.21 1020.87 1021.40 1021.22 1021.17 1021.33 1021.41 1021.18 1020.56 1020.09 1019.95 1019.71 1019.11 1018.40 1017.63 1016.86 1016.07 1014.86 1013.86 1013.09 1012.26 1011.42 1010.56
1009.12 1010.76 1011.47 1012.60 1013.73 1014.44 1015.06 1014.15 1015.08 1015.79 1016.62 1017.24 1016.71 1016.93 1016.64 1017.28 1017.78 1018.75 1019.44 1020.42 1021.10 1021.39 1021.74 1022.00 1022.20 1022.21 1022.21 1022.11 1021.63 1021.13 1020.81 1020.73 1020.18 1019.46 1018.66 1017.83 1017.02 1016.16 1014.86 1014.00 1013.12 1012.30 1011.49 1010.47
1012.39 1013.92 1013.45 1015.67 1015.96 1017.51 1018.10 1017.78 1018.55 1018.21 1019.16 1019.13 1019.23 1019.54 1019.16 1019.38 1020.15 1020.62 1021.17 1021.82 1022.40 1022.75 1022.88 1023.00 1023.10 1023.02 1022.90 1022.92 1022.55 1022.03 1021.68 1021.12 1020.34 1019.84 1019.03 1017.96 1017.03 1016.16 1015.20 1014.16 1013.17 1012.32 1011.50 1010.50
1015.68 1016.63 1015.81 1017.72 1019.13 1020.13 1019.73 1020.72 1020.97 1021.18 1020.80 1021.04 1021.57 1021.58 1021.14 1021.55 1022.07 1022.37 1022.69 1023.16 1023.59 1023.92 1023.75 1023.62 1023.39 1023.51 1023.61 1023.44 1023.11 1022.76 1021.99 1021.53 1021.07 1020.08 1019.29 1018.33 1017.12 1016.18 1015.28 1014.30 1013.21 1012.34 1011.49 1010.62
1020.63 1019.92 1020.19 1020.76 1020.76 1020.95 1022.24 1022.37 1022.85 1023.02 1023.29 1023.07 1023.36 1023.33 1023.03 1023.31 1023.77 1024.06 1024.24 1024.68 1024.99 1025.04 1024.88 1024.76 1024.70 1024.39 1023.98 1023.63 1023.41 1023.21 1022.65 1022.02 1021.28 1020.59 1019.64 1018.81 1017.73 1016.67 1015.37 1014.39 1013.25 1012.21 1011.48 1010.96
1023.70 1024.23 1023.52 1023.25 1023.55 1023.50 1024.58 1025.47 1024.94 1024.80 1025.12 1025.19 1025.04 1025.00 1024.73 1024.98 1025.49 1025.75 1025.92 1026.18 1026.18 1026.20 1025.95 1025.55 1025.26 1024.93 1024.45 1024.06 1023.56 1023.36 1023.26 1022.81 1021.71 1020.75 1019.96 1019.17 1018.15 1016.99 1015.69 1014.26 1012.79 1012.10 1010.97 1010.37
Wind_Speed
7 7 20 18 13 1 6 5 7 2 3 3 8 9 20 10 5 9 10 8 10 11 12 9 8 9 8 7 8 11 8 11 7 6 6 7 10 8 7 8 10 10 10 11
7 25 8 9 9 7 3 5 5 4 3 2 5 12 13 10 9 10 11 10 12 8 10 13 9 9 8 8 9 8 11 10 10 9 8 7 5 9 9 8 11 13 12 12
19 5 18 11 12 14 15 11 4 1 1 1 6 16 9 8 5 6 9 10 8 11 12 11 10 9 6 9 9 8 11 11 11 14 6 3 1 0 3 8 9 10 13 13
16 19 9 5 16 16 16 8 6 5 4 5 3 15 9 2 7 6 9 9 9 9 9 8 8 9 8 8 7 8 9 10 11 10 9 13 11 11 11 11 7 9 13 14
16 12 18 9 17 16 8 8 14 5 5 2 5 4 3 2 5 6 8 9 10 11 9 10 9 9 9 7 7 7 8 8 11 11 14 12 13 10 9 5 7 8 9 13
26 3 15 15 10 18 7 7 5 3 4 10 18 9 24 10 8 5 6 9 9 9 9 8 8 7 6 6 6 6 7 9 7 7 11 13 13 12 8 7 5 7 5 6
16 8 2 7 8 6 9 11 3 7 10 15 10 8 24 1 3 7 6 9 11 7 8 8 8 7 5 7 6 4 4 5 5 6 7 11 12 11 10 9 5 7 5 5
14 12 19 6 8 10 20 16 8 10 7 9 8 13 13 8 13 20 16 19 7 7 4 5 2 4 5 6 7 7 8 8 8 7 5 6 7 6 6 7 7 6 7 8
11 12 6 6 7 17 12 17 8 6 2 3 6 8 9 8 7 9 11 6 8 4 7 7 6 5 5 6 7 7 7 7 8 8 7 6 4 6 7 7 6 7 9 8
5 7 7 19 7 11 14 10 8 7 8 8 4 5 10 2 7 6 7 6 6 5 6 6 6 5 4 5 5 6 7 7 6 7 6 6 6 6 5 6 8 10 11 10
3 3 4 13 18 19 6 10 7 4 5 7 3 9 9 14 7 7 8 8 9 8 6 6 6 5 5 5 7 7 8 8 8 8 8 8 9 8 6 5 6 8 9 10
9 4 6 13 15 20 22 20 17 8 10 6 1 10 3 7 7 8 9 8 6 7 6 6 6 5 6 6 6 6 6 7 7 5 6 8 9 9 9 8 7 8 10 10
15 6 9 3 2 2 14 19 17 17 2 14 10 10 5 5 6 8 11 8 7 7 7 6 6 6 6 6 7 7 8 9 9 9 6 7 8 10 11 11 11 10 9 10
19 15 7 15 3 8 11 21 18 21 14 13 14 17 12 4 8 8 6 7 8 7 7 6 6 6 5 5 6 6 5 7 10 10 10 8 9 9 9 10 11 11 11 11
17 22 24 23 9 4 11 22 27 24 26 18 21 18 25 13 11 13 13 8 8 7 6 4 4 5 3 5 7 8 9 6 7 7 6 7 8 8 8 9 10 10 11 10
16 16 20 21 23 19 6 18 20 25 24 25 20 12 22 9 7 7 11 10 8 7 6 4 7 10 9 11 10 9 9 9 9 8 8 8 9 9 9 10 11 11 11 12
15 10 15 18 28 25 25 27 22 19 21 25 23 28 14 7 15 15 10 9 11 8 6 7 7 7 7 8 9 8 9 9 8 8 9 10 11 11 12 13 13 13 14 14
11 17 11 11 5 16 11 11 13 20 19 29 20 16 15 9 6 9 4 9 10 8 7 7 6 6 7 7 8 9 8 8 8 9 11 11 13 14 14 14 12 12 11 13
6 5 7 14 14 4 1 8 15 18 26 16 20 29 7 11 8 7 8 12 11 9 8 7 6 6 6 8 9 9 6 7 8 10 10 11 11 13 14 14 15 13 13 12
7 7 7 5 16 16 12 6 5 1 16 7 8 8 12 13 10 6 7 9 11 9 8 8 7 5 5 6 9 7 7 7 9 11 12 12 12 13 14 14 14 12 13 12
8 5 14 17 10 6 2 12 7 12 3 8 9 11 4 6 6 16 11 12 10 9 8 8 7 7 8 8 10 9 8 10 11 12 12 12 11 13 13 14 13 13 14 14
11 8 8 8 7 13 13 4 3 5 11 9 12 12 14 14 14 12 12 10 9 8 8 9 8 7 7 10 10 11 10 13 12 12 13 12 12 10 10 13 14 13 14 14
1 5 1 4 4 7 10 16 11 12 10 13 12 12 12 13 12 11 10 9 9 9 8 8 7 8 7 10 11 11 13 13 14 13 12 10 12 11 11 12 11 12 12 11
4 10 4 6 8 9 14 13 14 12 14 12 12 12 12 11 11 10 9 9 9 9 10 10 10 10 10 10 11 11 13 14 12 13 13 12 11 12 11 9 8 8 10 11
5 10 5 4 9 9 13 15 12 13 13 12 12 13 14 11 12 11 10 10 10 10 10 10 10 10 12 12 12 10 12 14 13 13 12 12 10 12 12 10 9 9 9 11
7 6 4 3 8 5 8 9 12 13 13 11 11 11 13 13 11 11 9 9 10 10 11 10 12 12 12 12 12 11 10 12 12 12 10 10 10 10 10 11 13 17 20 20
Wind_Direction
173 197 215 198 204 33 155 182 197 232 236 196 237 247 267 260 235 256 254 252 259 263 261 249 241 247 243 236 221 219 213 219 193 194 199 215 221 218 217 216 212 206 210 206
190 228 195 159 186 207 183 207 212 281 277 189 319 272 253 257 237 215 231 229 242 251 270 272 250 236 222 233 225 219 219 212 202 206 217 214 202 224 222 216 216 210 207 207
206 269 171 169 190 199 219 215 164 146 10 316 356 289 241 245 246 195 224 223 225 224 247 261 268 258 238 235 233 225 225 224 215 214 197 183 144 252 200 223 224 215 209 208
223 220 164 173 196 187 221 173 147 175 95 245 121 275 239 181 243 233 230 241 245 245 243 250 264 276 264 252 252 241 235 222 218 205 206 208 214 222 226 230 216 213 203 213
213 172 200 203 211 186 213 143 199 162 163 33 234 287 256 48 286 271 269 244 239 234 232 248 250 257 273 286 284 267 256 236 225 204 205 210 221 229 236 218 220 213 208 210
216 177 182 204 168 183 137 78 75 126 153 239 233 193 276 241 222 214 228 246 245 255 259 259 269 282 298 303 295 282 264 255 237 210 214 218 223 229 234 227 217 228 208 204
215 201 225 150 146 151 161 143 157 214 207 235 165 172 244 172 232 175 226 268 270 256 262 279 308 323 336 11 6 356 5 331 297 230 219 222 229 233 235 238 227 234 224 213
195 199 205 184 183 183 195 184 171 197 199 233 145 219 243 216 235 256 243 251 269 271 282 280 309 65 43 22 16 27 33 31 18 5 285 237 225 235 234 235 235 234 229 231
207 222 152 196 182 164 183 210 179 104 51 69 212 289 297 241 228 249 243 275 290 317 105 109 87 61 34 36 30 28 31 28 25 14 8 4 301 250 250 251 247 246 247 245
221 224 186 195 146 206 182 157 188 203 195 223 238 259 232 204 244 249 215 163 137 127 111 92 73 62 44 35 21 32 34 38 10 6 3 351 342 337 296 266 256 253 253 248
187 224 210 150 200 191 157 189 209 168 196 202 224 246 200 232 210 195 156 168 158 148 125 115 99 78 75 57 35 26 20 19 28 12 357 353 346 340 330 316 303 292 278 261
195 189 196 203 200 204 200 202 196 188 213 218 201 243 239 233 211 166 180 174 160 143 137 113 94 71 39 41 55 40 26 9 355 1 3 0 354 345 341 330 322 316 308 301
183 213 185 168 302 310 217 212 205 224 57 201 214 239 214 192 159 180 169 184 169 157 144 116 75 54 38 16 8 28 26 4 354 345 10 7 4 354 343 334 324 318 311 305
193 230 233 230 227 136 197 214 212 210 223 221 221 242 244 235 203 179 167 176 176 175 147 114 81 59 37 21 5 354 11 16 354 347 335 1 346 341 333 325 325 325 318 311
208 227 234 240 248 209 205 216 215 213 219 216 225 218 246 215 194 188 186 172 159 141 120 95 112 118 55 37 26 1 15 355 347 329 338 349 332 332 326 324 328 326 321 318
210 231 227 239 235 228 216 222 221 217 229 232 240 237 237 215 171 189 193 171 154 154 142 100 52 41 24 14 6 347 352 350 344 342 340 340 334 337 339 331 336 333 335 331
208 217 229 238 234 234 237 228 217 226 226 225 224 230 221 180 191 201 199 176 164 141 112 76 55 43 24 12 351 338 340 335 339 335 337 343 340 344 341 340 339 339 337 336
194 209 226 223 195 222 234 258 209 213 212 233 233 244 227 194 100 50 19 152 117 110 91 61 45 31 21 358 341 336 344 342 350 350 347 348 344 336 335 334 333 330 326 328
168 145 245 237 229 266 246 201 203 194 234 222 215 235 116 124 97 40 39 74 86 74 60 49 31 27 8 358 342 327 327 339 354 347 339 332 331 327 330 331 331 328 322 322
169 236 202 288 223 225 246 118 13 317 251 23 341 329 164 153 178 164 108 85 77 67 52 31 18 19 6 355 338 334 348 358 352 339 328 327 328 321 326 325 322 319 320 311
189 201 223 242 244 263 357 316 302 162 243 44 35 355 257 159 49 110 97 81 74 65 48 24 14 10 2 355 342 350 349 356 335 329 324 322 321 316 317 321 322 321 319 315
170 177 201 215 227 238 342 340 232 52 56 50 53 35 68 83 82 77 78 74 64 51 43 24 7 353 357 360 353 350 350 339 332 327 324 321 318 315 313 322 319 320 319 317
115 350 38 22 31 62 37 67 50 62 74 49 51 41 60 63 55 54 58 50 44 35 26 17 0 344 356 359 355 344 341 335 333 327 319 315 318 316 323 314 316 318 319 319
49 9 77 224 68 55 53 57 57 58 56 56 47 47 50 63 47 41 37 28 21 10 9 1 359 352 342 349 348 341 336 335 329 323 320 320 325 323 316 312 304 305 312 313
340 328 6 96 110 106 58 38 39 44 42 45 49 45 48 41 38 20 24 16 7 358 358 354 349 340 337 341 339 336 336 336 332 325 321 318 319 318 315 307 297 301 292 291
360 1 347 49 13 50 65 43 37 43 33 27 38 38 48 38 27 14 12 3 357 348 346 348 346 338 332 331 332 329 330 331 330 326 323 318 316 315 313 309 312 297 294 298